Find OPS 9390

NORAD ID: 6317 Int'l Des: 1972-101 Owner: NRO/SAFSP Country: US operational
MEOELLIPTICAL

リアルタイム位置

3D地球を読み込み中...

OPS 9390について

説明を読み込み中...

次回通過

Passes for default location (London). Set your location on the main map for personalized predictions.

高度履歴

Loading altitude history...

軌道要素

1 06317U 72101A 26105.95325437 -.00000113 00000-0 00000-0 0 9996
2 06317 9.2349 235.8540 1229393 110.2265 275.4364 1.00385847 24899
Epoch: Apr 15, 2026 • Age: 16 hours

現在のステータス

高度 40365.2 km
速度 2.76 km/s
衛星直下点 -9.25°S, 80.75°E
タイプ other

Most Searched